TimeEST,TemperatureF,Dew PointF,Humidity,Sea Level PressureIn,VisibilityMPH,Wind Direction,Wind SpeedMPH,Gust SpeedMPH,PrecipitationIn,Events,Conditions,WindDirDegrees,DateUTC
12:53 AM,64.0,60.1,87,30.09,10.0,Calm,Calm,-,N/A,,Clear,0,2012-11-25 05:53:00
1:53 AM,64.9,61.0,87,30.09,10.0,North,3.5,-,N/A,,Clear,350,2012-11-25 06:53:00
2:53 AM,66.9,62.1,84,30.08,10.0,North,4.6,-,N/A,,Clear,360,2012-11-25 07:53:00
3:49 AM,66.2,62.6,88,30.08,10.0,North,4.6,-,N/A,,Mostly Cloudy,10,2012-11-25 08:49:00
3:53 AM,66.9,63.0,87,30.08,10.0,North,4.6,-,N/A,,Mostly Cloudy,10,2012-11-25 08:53:00
4:46 AM,66.2,62.6,88,30.08,10.0,NNE,8.1,-,N/A,,Scattered Clouds,20,2012-11-25 09:46:00
4:53 AM,66.9,63.0,87,30.08,10.0,NE,8.1,-,N/A,,Partly Cloudy,40,2012-11-25 09:53:00
5:53 AM,64.9,60.1,84,30.08,10.0,NE,8.1,-,N/A,,Clear,40,2012-11-25 10:53:00
6:43 AM,64.4,57.2,77,30.11,10.0,NE,6.9,-,N/A,,Mostly Cloudy,40,2012-11-25 11:43:00
6:53 AM,64.4,57.2,77,30.11,10.0,NNE,6.9,-,N/A,,Overcast,20,2012-11-25 11:53:00
7:14 AM,64.4,55.4,73,30.12,10.0,NNE,6.9,-,N/A,,Scattered Clouds,20,2012-11-25 12:14:00
7:53 AM,64.9,55.0,70,30.12,10.0,NNE,9.2,-,N/A,,Clear,20,2012-11-25 12:53:00
8:53 AM,66.9,52.0,59,30.15,10.0,NNE,10.4,-,N/A,,Clear,20,2012-11-25 13:53:00
9:53 AM,66.9,55.9,68,30.15,10.0,North,13.8,-,N/A,,Clear,10,2012-11-25 14:53:00
10:53 AM,68.0,57.0,68,30.16,10.0,North,12.7,-,N/A,,Clear,10,2012-11-25 15:53:00
11:53 AM,68.0,57.0,68,30.15,10.0,North,11.5,-,N/A,,Clear,10,2012-11-25 16:53:00
12:53 PM,69.1,55.9,63,30.12,10.0,NNE,6.9,-,N/A,,Clear,30,2012-11-25 17:53:00
1:53 PM,69.1,57.0,65,30.10,10.0,North,8.1,-,N/A,,Clear,10,2012-11-25 18:53:00
2:53 PM,69.1,57.0,65,30.09,10.0,North,10.4,-,N/A,,Clear,10,2012-11-25 19:53:00
3:53 PM,69.1,57.9,68,30.09,10.0,North,6.9,-,N/A,,Clear,10,2012-11-25 20:53:00
4:53 PM,66.9,57.0,70,30.09,10.0,North,5.8,-,N/A,,Clear,350,2012-11-25 21:53:00
5:53 PM,64.9,55.9,73,30.10,10.0,NNE,3.5,-,N/A,,Clear,30,2012-11-25 22:53:00
6:53 PM,64.9,55.9,73,30.12,10.0,North,5.8,-,N/A,,Clear,360,2012-11-25 23:53:00
7:53 PM,64.0,55.0,73,30.13,10.0,Calm,Calm,-,N/A,,Clear,0,2012-11-26 00:53:00
8:53 PM,63.0,55.0,75,30.14,10.0,NNW,3.5,-,N/A,,Clear,340,2012-11-26 01:53:00
9:53 PM,62.1,55.0,78,30.14,10.0,NNE,3.5,-,N/A,,Clear,20,2012-11-26 02:53:00
10:53 PM,63.0,53.1,70,30.14,10.0,Calm,Calm,-,N/A,,Clear,0,2012-11-26 03:53:00
11:53 PM,61.0,57.0,87,30.14,10.0,NNE,3.5,-,N/A,,Clear,30,2012-11-26 04:53:00